DB0RV-13 Weather Reports


time (UTC)temp
F
wind
direction
speed
knots
gust
knots
rain 1hr
in
rain 24hr
in
rain mn
in
humidity
%
barometer
mb
20260506044501 47 312 0.9 0.0 0.00 0.00 0.00 97 1006.4
20260506044001 46 314 2.6 0.0 0.00 0.00 0.00 97 1006.3
20260506043502 45 320 1.7 0.0 0.00 0.00 0.00 97 1006.3
20260506043002 45 313 1.7 0.0 0.00 0.00 0.00 97 1006.5
20260506042502 46 321 1.7 0.0 0.00 0.00 0.00 96 1006.6
20260506042002 47 334 2.6 0.0 0.00 0.00 0.00 97 1006.7
20260506041502 47 154 0.0 0.0 0.00 0.00 0.00 97 1006.7
20260506041001 47 156 0.9 0.0 0.00 0.00 0.00 96 1006.8
20260506040502 47 153 1.7 0.0 0.00 0.00 0.00 95 1006.8
20260506040001 47 143 1.7 0.0 0.00 0.00 0.00 94 1006.8
20260506035501 47 148 0.9 0.0 0.00 0.00 0.00 93 1007.0
20260506035001 47 151 1.7 0.0 0.00 0.00 0.00 92 1006.9
20260506034501 49 176 0.0 0.0 0.00 0.00 0.00 94 1006.9
20260506034002 49 301 0.9 0.0 0.00 0.00 0.00 94 1006.9
20260506033501 48 314 1.7 0.0 0.00 0.00 0.00 93 1006.9
20260506033002 48 324 2.6 0.0 0.00 0.00 0.00 93 1007.0
20260506032501 48 328 1.7 0.0 0.00 0.00 0.00 92 1007.1
20260506032002 49 320 0.9 0.0 0.00 0.00 0.00 92 1007.1
20260506031502 49 325 1.7 0.0 0.00 0.00 0.00 92 1007.1
20260506031001 49 299 0.9 0.0 0.00 0.00 0.00 92 1007.4
20260506030502 49 330 0.9 0.0 0.00 0.00 0.00 92 1007.4
20260506030002 49 303 0.9 0.0 0.00 0.00 0.00 92 1007.5
20260506025501 48 308 0.9 0.0 0.00 0.00 0.00 91 1007.5
20260506025001 49 331 1.7 0.0 0.00 0.00 0.00 91 1007.6
20260506024502 49 348 0.9 0.0 0.00 0.00 0.00 91 1007.5
20260506024001 49 119 0.9 0.0 0.00 0.00 0.00 90 1007.5
20260506023502 49 0 0.0 0.0 0.00 0.00 0.00 91 1007.5
20260506023002 49 130 0.0 0.0 0.00 0.00 0.00 91 1007.6
20260506022501 49 0 0.0 0.0 0.00 0.00 0.00 89 1007.6
20260506022002 50 285 0.0 0.0 0.00 0.00 0.00 90 1007.6
20260506021503 50 187 0.9 0.0 0.00 0.00 0.00 90 1007.6
20260506021001 50 0 0.0 0.0 0.00 0.00 0.00 89 1007.6
20260506020502 50 183 0.0 0.0 0.00 0.00 0.00 89 1007.6
20260506020002 50 0 0.0 0.0 0.00 0.00 0.00 89 1007.7
20260506015501 50 0 0.0 0.0 0.00 0.00 0.00 90 1007.8
20260506015002 49 0 0.0 0.0 0.00 0.00 0.00 90 1007.8
20260506014503 49 0 0.0 0.0 0.00 0.00 0.00 90 1007.9
20260506014001 49 33 1.7 0.0 0.00 0.00 0.00 89 1007.8
20260506013502 49 35 0.9 0.0 0.00 0.00 0.00 90 1007.9
20260506013002 49 63 0.9 0.0 0.00 0.00 0.00 89 1007.9
20260506012501 49 0 0.0 0.0 0.00 0.00 0.00 88 1007.9
20260506012002 49 282 1.7 0.0 0.00 0.00 0.00 89 1008.0
20260506011502 50 260 0.9 0.0 0.00 0.00 0.00 89 1008.0
20260506011001 50 300 0.9 0.0 0.00 0.00 0.00 88 1007.8
20260506010502 50 351 0.0 0.0 0.00 0.00 0.00 88 1007.9
20260506010002 50 267 0.9 0.0 0.00 0.00 0.00 88 1008.1
20260506005501 50 241 1.7 0.0 0.00 0.00 0.00 88 1008.2
20260506005002 50 244 2.6 0.0 0.00 0.00 0.00 88 1008.3
20260506004502 50 284 1.7 0.0 0.00 0.00 0.00 87 1008.3
20260506004001 50 286 3.5 0.0 0.00 0.00 0.00 88 1008.3
20260506003502 50 238 3.5 0.0 0.00 0.00 0.00 88 1008.4
20260506003002 50 272 0.9 0.0 0.00 0.00 0.00 87 1008.2
20260506002501 50 299 0.9 0.0 0.00 0.00 0.00 87 1008.2
20260506002002 51 332 1.7 0.0 0.00 0.00 0.00 85 1008.1
20260506001502 51 323 0.0 0.0 0.00 0.00 0.00 87 1008.1
20260506001001 50 0 0.0 0.0 0.00 0.00 0.00 87 1008.3
20260506000502 51 0 0.0 0.0 0.00 0.00 0.00 87 1008.3
20260506000002 50 224 0.9 0.0 0.00 0.00 0.00 88 1008.2
20260505235501 50 277 1.7 0.0 0.00 0.00 0.00 87 1008.3
20260505235002 50 224 2.6 0.0 0.00 0.00 0.00 88 1008.3
20260505234502 50 238 1.7 0.0 0.00 0.00 0.00 88 1008.5
20260505234001 50 300 1.7 0.0 0.00 0.00 0.00 88 1008.5
20260505233502 50 229 2.6 0.0 0.00 0.00 0.00 89 1008.5
20260505233002 50 277 0.9 0.0 0.00 0.00 0.00 89 1008.5
20260505232501 50 281 1.7 0.0 0.00 0.00 0.00 89 1008.6
20260505232002 50 316 3.5 0.0 0.00 0.00 0.00 88 1008.7
20260505231502 50 241 1.7 0.0 0.00 0.00 0.00 88 1008.7
20260505231001 50 296 1.7 0.0 0.00 0.00 0.00 88 1008.7
20260505230502 50 283 0.9 0.0 0.00 0.00 0.00 88 1008.7
20260505230002 50 267 1.7 0.0 0.00 0.00 0.00 88 1008.7
20260505225501 50 249 1.7 0.0 0.00 0.00 0.00 88 1008.7
20260505225002 50 221 1.7 0.0 0.00 0.00 0.00 87 1008.7
20260505224502 50 205 3.5 0.0 0.00 0.00 0.00 88 1008.8
20260505224001 50 237 2.6 0.0 0.00 0.00 0.00 88 1008.8
20260505223502 50 242 2.6 0.0 0.00 0.00 0.00 88 1008.8
20260505223003 50 260 1.7 0.0 0.00 0.00 0.00 88 1008.9
20260505222501 51 240 3.5 0.0 0.00 0.00 0.00 88 1008.9
20260505222002 51 250 3.5 0.0 0.00 0.00 0.00 88 1008.9
20260505221502 51 271 3.5 0.0 0.00 0.00 0.00 89 1008.9
20260505221001 51 242 3.5 0.0 0.00 0.00 0.00 88 1008.9
20260505220502 51 266 2.6 0.0 0.00 0.00 0.00 88 1008.8
20260505220002 51 254 1.7 0.0 0.00 0.00 0.00 88 1008.9
20260505215501 51 245 3.5 0.0 0.00 0.00 0.00 88 1008.8
20260505215002 51 258 3.5 0.0 0.00 0.00 0.00 88 1008.8
20260505214502 51 243 3.5 0.0 0.00 0.00 0.00 89 1008.8
20260505214001 50 240 2.6 0.0 0.00 0.00 0.00 89 1008.8
20260505213502 50 240 2.6 0.0 0.00 0.00 0.00 90 1008.9
20260505213002 50 244 1.7 0.0 0.00 0.00 0.00 90 1009.0
20260505212501 51 248 2.6 0.0 0.00 0.00 0.00 90 1008.9
20260505212002 50 266 3.5 0.0 0.00 0.00 0.00 90 1009.0
20260505211502 50 243 1.7 0.0 0.00 0.00 0.00 90 1009.0
20260505211001 50 239 3.5 0.0 0.00 0.00 0.00 90 1009.0
20260505210501 51 239 2.6 0.0 0.00 0.00 0.00 89 1008.9
20260505210002 51 218 5.2 0.0 0.00 0.00 0.00 90 1008.9
20260505205501 51 241 2.6 0.0 0.00 0.00 0.00 90 1008.9
20260505205002 51 222 2.6 0.0 0.00 0.00 0.00 90 1009.0
20260505204502 51 247 3.5 0.0 0.00 0.00 0.00 90 1009.0
20260505204001 51 256 3.5 0.0 0.00 0.00 0.00 90 1009.1
20260505203502 51 243 3.5 0.0 0.00 0.00 0.00 90 1009.1
20260505203002 51 217 3.5 0.0 0.00 0.00 0.00 91 1009.1
20260505202502 51 243 4.3 0.0 0.00 0.00 0.00 90 1009.1
20260505202002 51 233 2.6 0.0 0.00 0.00 0.00 90 1009.0
20260505201502 51 227 2.6 0.0 0.00 0.00 0.00 89 1009.1
20260505201001 52 217 3.5 0.0 0.00 0.00 0.00 87 1009.0
20260505200502 52 245 2.6 0.0 0.00 0.00 0.00 86 1009.0
20260505200003 52 238 3.5 0.0 0.00 0.00 0.00 86 1009.0
20260505195502 52 227 2.6 0.0 0.00 0.00 0.00 87 1008.9
20260505195002 52 222 1.7 0.0 0.00 0.00 0.00 88 1008.9
20260505194502 52 233 1.7 0.0 0.00 0.00 0.00 89 1009.0
20260505194002 52 272 0.9 0.0 0.00 0.00 0.00 89 1009.0
20260505193502 52 214 2.6 0.0 0.00 0.00 0.00 90 1009.0
20260505193002 52 184 2.6 0.0 0.00 0.00 0.00 90 1008.8
20260505192501 52 184 2.6 0.0 0.00 0.00 0.00 89 1008.8
20260505192002 52 198 3.5 0.0 0.00 0.00 0.00 89 1008.7
20260505191501 52 198 5.2 0.0 0.00 0.00 0.00 88 1008.7
20260505191001 53 196 4.3 0.0 0.00 0.00 0.00 85 1008.7
20260505190502 53 223 5.2 0.0 0.00 0.00 0.00 81 1008.7
20260505190002 53 248 6.1 0.0 0.00 0.00 0.00 83 1008.5
20260505185502 53 248 7.0 0.0 0.00 0.00 0.00 85 1008.8
20260505185002 53 220 6.1 0.0 0.00 0.00 0.00 83 1008.6
20260505184502 53 218 3.5 0.0 0.00 0.00 0.00 82 1008.6
20260505184001 54 227 6.1 0.0 0.00 0.00 0.00 79 1008.4
20260505183502 55 242 4.3 0.0 0.00 0.00 0.00 75 1008.4
20260505183002 56 249 5.2 0.0 0.00 0.00 0.00 72 1008.2
20260505182502 57 247 5.2 0.0 0.00 0.00 0.00 70 1008.0
20260505182001 57 258 6.1 0.0 0.00 0.00 0.00 70 1008.1
20260505181502 57 281 7.0 0.0 0.00 0.00 0.00 69 1007.9
20260505181002 58 271 6.1 0.0 0.00 0.00 0.00 69 1007.7
20260505180501 58 245 5.2 0.0 0.00 0.00 0.00 69 1007.7
20260505180002 59 250 3.5 0.0 0.00 0.00 0.00 69 1007.5
20260505175501 59 251 4.3 0.0 0.00 0.00 0.00 68 1007.6
20260505175002 59 261 3.5 0.0 0.00 0.00 0.00 67 1007.4
20260505174502 59 268 3.5 0.0 0.00 0.00 0.00 66 1007.4
20260505174002 59 272 1.7 0.0 0.00 0.00 0.00 65 1007.4
20260505173501 59 276 2.6 0.0 0.00 0.00 0.00 64 1007.4
20260505173002 60 285 4.3 0.0 0.00 0.00 0.00 63 1007.4
20260505172502 60 267 1.7 0.0 0.00 0.00 0.00 61 1007.3
20260505172002 60 315 8.7 0.0 0.00 0.00 0.00 60 1007.3
20260505171502 60 285 4.3 0.0 0.00 0.00 0.00 62 1007.1
20260505171001 60 267 8.7 0.0 0.00 0.00 0.00 65 1007.2
20260505170502 60 266 6.1 0.0 0.00 0.00 0.00 69 1007.2
20260505170002 60 256 2.6 0.0 0.00 0.00 0.00 76 1007.2
20260505165502 60 216 4.3 0.0 0.00 0.00 0.00 75 1007.0
20260505165001 60 207 4.3 0.0 0.00 0.00 0.00 74 1007.0
20260505164502 60 216 5.2 0.0 0.00 0.00 0.00 74 1006.9
20260505164002 60 222 1.7 0.0 0.00 0.00 0.00 74 1007.0
20260505163502 60 203 5.2 0.0 0.00 0.00 0.00 74 1006.9
20260505163002 60 211 6.1 0.0 0.00 0.00 0.00 73 1006.9
20260505162501 61 192 3.5 0.0 0.00 0.00 0.00 72 1006.9
20260505162002 61 0 0.0 0.0 0.00 0.00 0.00 71 1007.0
20260505161501 61 249 1.7 0.0 0.00 0.00 0.00 71 1006.9
20260505161002 60 288 2.6 0.0 0.00 0.00 0.00 71 1006.9
20260505160501 60 315 1.7 0.0 0.00 0.00 0.00 69 1006.8
20260505153001 59 154 2.6 0.0 0.00 0.00 0.00 83 1006.8
20260505152502 58 127 2.6 0.0 0.00 0.00 0.00 83 1006.7
20260505152001 58 149 2.6 0.0 0.00 0.00 0.00 82 1006.8
20260505151502 58 175 2.6 0.0 0.00 0.00 0.00 83 1006.9
20260505151002 58 207 2.6 0.0 0.00 0.00 0.00 82 1007.3
20260505150501 58 236 5.2 0.0 0.00 0.00 0.00 79 1007.3
20260505140502 61 70 0.9 0.0 0.00 0.00 0.00 67 1007.2
20260505125002 59 159 3.5 0.0 0.00 0.00 0.00 71 1007.5
20260505124501 59 268 0.0 0.0 0.00 0.00 0.00 71 1007.4
20260505124001 60 191 2.6 0.0 0.00 0.00 0.00 73 1007.5
20260505123502 60 189 0.9 0.0 0.00 0.00 0.00 71 1007.6
20260505123001 59 179 1.7 0.0 0.00 0.00 0.00 73 1007.6
20260505122502 58 181 3.5 0.0 0.00 0.00 0.00 72 1007.6
20260505122002 59 165 3.5 0.0 0.00 0.00 0.00 73 1007.6
20260505121502 59 152 1.7 0.0 0.00 0.00 0.00 71 1007.6
20260505121001 59 312 1.7 0.0 0.00 0.00 0.00 71 1007.6
20260505120502 58 25 1.7 0.0 0.00 0.00 0.00 73 1007.6
20260505120001 58 38 3.5 0.0 0.00 0.00 0.00 73 1007.6
20260505115502 58 27 3.5 0.0 0.00 0.00 0.00 73 1007.8
20260505115001 57 297 0.0 0.0 0.00 0.00 0.00 76 1007.7
20260505114501 57 271 1.7 0.0 0.00 0.00 0.00 76 1007.8
20260505114002 57 323 1.7 0.0 0.00 0.00 0.00 78 1007.8
20260505113502 57 330 1.7 0.0 0.00 0.00 0.00 78 1007.9
20260505113002 57 0 0.0 0.0 0.00 0.00 0.00 79 1007.9
20260505112501 56 223 0.9 0.0 0.00 0.00 0.00 79 1008.0
20260505112002 56 200 2.6 0.0 0.00 0.00 0.00 79 1008.1
20260505111501 56 230 3.5 0.0 0.00 0.00 0.00 80 1008.1
20260505111002 56 239 2.6 0.0 0.00 0.00 0.00 78 1008.1
20260505110501 56 210 0.9 0.0 0.00 0.00 0.00 78 1008.2
20260505102001 56 215 4.3 0.0 0.00 0.00 0.00 77 1008.2
20260505101502 55 202 3.5 0.0 0.00 0.00 0.00 76 1008.1
20260505101002 56 215 4.3 0.0 0.00 0.00 0.00 76 1008.0
20260505100502 57 162 0.9 0.0 0.00 0.00 0.00 77 1008.1
20260505100002 56 244 0.0 0.0 0.00 0.00 0.00 76 1008.1
20260505095501 55 246 0.9 0.0 0.00 0.00 0.00 76 1008.0
20260505095002 55 239 1.7 0.0 0.00 0.00 0.00 76 1008.2
20260505094501 55 241 4.3 0.0 0.00 0.00 0.00 78 1008.1
20260505094002 55 243 0.9 0.0 0.00 0.00 0.00 78 1008.2
20260505093501 55 238 0.9 0.0 0.00 0.00 0.00 79 1008.3
20260505093002 54 269 4.3 0.0 0.00 0.00 0.00 77 1008.3
20260505092502 55 239 2.6 0.0 0.00 0.00 0.00 78 1008.4
20260505092002 55 259 3.5 0.0 0.00 0.00 0.00 78 1008.4
20260505091502 55 262 5.2 0.0 0.00 0.00 0.00 79 1008.3
20260505091001 55 245 2.6 0.0 0.00 0.00 0.00 79 1008.3
20260505090502 55 248 6.1 0.0 0.00 0.00 0.00 78 1008.3
20260505090001 55 244 4.3 0.0 0.00 0.00 0.00 79 1008.4
20260505085502 55 239 4.3 0.0 0.00 0.00 0.00 80 1008.3
20260505085001 54 266 3.5 0.0 0.00 0.00 0.00 79 1008.4
20260505084502 55 244 4.3 0.0 0.00 0.00 0.00 80 1008.4
20260505084001 54 246 4.3 0.0 0.00 0.00 0.00 79 1008.4
20260505083502 55 253 3.5 0.0 0.00 0.00 0.00 79 1008.5
20260505083002 55 241 2.6 0.0 0.00 0.00 0.00 80 1008.4
20260505082502 55 239 1.7 0.0 0.00 0.00 0.00 79 1008.4
20260505082002 55 247 2.6 0.0 0.00 0.00 0.00 81 1008.5
20260505081501 54 239 1.7 0.0 0.00 0.00 0.00 82 1008.4
20260505081002 53 250 4.3 0.0 0.00 0.00 0.00 82 1008.5
20260505080501 53 230 4.3 0.0 0.00 0.00 0.00 82 1008.6
20260505080002 53 251 1.7 0.0 0.00 0.00 0.00 84 1008.6
20260505075501 53 227 2.6 0.0 0.00 0.00 0.00 83 1008.6
20260505075002 53 219 3.5 0.0 0.00 0.00 0.00 84 1008.8
20260505074501 53 240 4.3 0.0 0.00 0.00 0.00 84 1008.7
20260505074001 53 216 4.3 0.0 0.00 0.00 0.00 85 1008.8
20260505073502 53 200 3.5 0.0 0.00 0.00 0.00 85 1008.8
20260505073001 53 239 4.3 0.0 0.00 0.00 0.00 84 1008.8
20260505072502 52 244 2.6 0.0 0.00 0.00 0.00 84 1008.9
20260505072001 53 244 2.6 0.0 0.00 0.00 0.00 85 1008.8
20260505071502 53 242 2.6 0.0 0.00 0.00 0.00 83 1008.9
20260505071001 53 242 1.7 0.0 0.00 0.00 0.00 82 1008.9
20260505070502 53 217 0.9 0.0 0.00 0.00 0.00 81 1008.9
20260505070001 52 349 1.7 0.0 0.00 0.00 0.00 82 1008.9
20260505065501 52 300 0.9 0.0 0.00 0.00 0.00 82 1008.9
20260505065002 51 0 0.0 0.0 0.00 0.00 0.00 83 1008.8
20260505064501 51 126 0.0 0.0 0.00 0.00 0.00 83 1009.0
20260505064002 51 118 0.0 0.0 0.00 0.00 0.00 82 1009.0
20260505063501 51 0 0.0 0.0 0.00 0.00 0.00 83 1009.0
20260505063002 50 0 0.0 0.0 0.00 0.00 0.00 83 1009.0
20260505062501 50 116 1.7 0.0 0.00 0.00 0.00 83 1009.0
20260505062002 50 122 1.7 0.0 0.00 0.00 0.00 83 1008.9
20260505061501 50 134 0.9 0.0 0.00 0.00 0.00 84 1009.0
20260505061001 49 152 1.7 0.0 0.00 0.00 0.00 83 1009.1
20260505060501 49 134 2.6 0.0 0.00 0.00 0.00 83 1009.0
20260505060001 50 132 0.9 0.0 0.00 0.00 0.00 83 1009.1
20260505055502 50 131 1.7 0.0 0.00 0.00 0.00 82 1009.2
20260505055001 50 114 0.9 0.0 0.00 0.00 0.00 83 1009.1
20260505054502 49 194 0.9 0.0 0.00 0.00 0.00 84 1009.2
20260505054001 48 160 0.9 0.0 0.00 0.00 0.00 85 1009.1
20260505053502 48 101 0.9 0.0 0.00 0.00 0.00 85 1009.1
20260505053001 48 67 0.9 0.0 0.00 0.00 0.00 86 1009.2
20260505052501 47 357 0.0 0.0 0.00 0.00 0.00 87 1009.1
20260505052001 47 26 0.0 0.0 0.00 0.00 0.00 88 1009.1
20260505051501 46 0 0.0 0.0 0.00 0.00 0.00 88 1009.1
20260505051002 46 62 0.9 0.0 0.00 0.00 0.00 88 1009.0
20260505050501 46 82 0.9 0.0 0.00 0.00 0.00 88 1009.1